Weather History for Valentine, NE

Change the Weather History Date:

Wednesday, May 15, 2013

  Actual Average Record
Temperature  
Mean Temperature 66 °F 57 °F  
Max Temperature 80 °F 71 °F 95 °F (1894)
Min Temperature 51 °F 44 °F 25 °F (1907)
Degree Days  
Heating Degree Days 0 9  
Month to date heating degree days 180 161  
Since 1 July heating degree days 6822 6844  
Cooling Degree Days 1 1  
Month to date cooling degree days 18 12  
Year to date cooling degree days 18 16  
Growing Degree Days 16 (Base 50)    
Moisture  
Dew Point 40 °F    
Average Humidity 46    
Maximum Humidity 66    
Minimum Humidity 25    
Precipitation  
Precipitation 0.00 in 0.10 in 1.25 in (1925)
Month to date precipitation 0.56 1.43  
Year to date precipitation 5.22 5.46  
Snow  
Snow 0.00 in 0.00 in T in (1916)
Month to date snowfall 2.0 0.1  
Since 1 July snowfall 54.0 33.3  
Snow Depth 0.00 in    
Sea Level Pressure  
Sea Level Pressure 29.89 in    
Wind  
Wind Speed 10 mph (East)    
Max Wind Speed 20 mph    
Max Gust Speed 25 mph    
T = Trace of Precipitation, MM = Missing Value Source: NWS Daily Summary

Daily Weather History Graph

Daily Weather History Graph

Search for Another Location

Airport:

Trip Planner

Search our weather history database for the weather conditions in past years. The results will help you decide how hot, cold, wet, or windy it might be!

Date:

Astronomy

May. 15, 2013 Rise Set
Actual Time 6:19 AM CDT 8:58 PM CDT
Civil Twilight 5:46 AM CDT 9:31 PM CDT
Nautical Twilight 5:05 AM CDT 10:12 PM CDT
Astronomical Twilight 4:19 AM CDT 10:59 PM CDT
Moon 10:57 AM CDT (5/15) 12:45 AM CDT (5/15)
Length of Visible Light 15h 44m
Length of Day
14h 39m
Waxing Crescent, 27% of the Moon is Illuminated
May 15
Waxing Crescent
May 17
First Quarter
May 24
Full
May 31
Last Quarter
Jun 8
New

Hourly Weather History & Observations

Time (CDT) Temp. Dew Point Humidity Pressure Visibility Wind Dir Wind Speed Gust Speed Precip Events Conditions
12:52 AM 63.0 °F 41.0 °F 45% 29.81 in - SE 10.4 mph - N/A   Clear
1:52 AM 63.0 °F 35.1 °F 35% 29.84 in - NE 11.5 mph - N/A   Clear
2:52 AM 59.0 °F 37.0 °F 44% 29.83 in - ENE 8.1 mph - N/A   Clear
3:52 AM 51.1 °F 39.9 °F 66% 29.88 in - SW 3.5 mph - N/A   Clear
4:52 AM 54.0 °F 39.9 °F 59% 29.88 in - NE 9.2 mph - N/A   Clear
5:52 AM 57.0 °F 39.9 °F 53% 29.90 in - ENE 15.0 mph - N/A   Partly Cloudy
6:52 AM 53.1 °F 42.1 °F 66% 29.94 in - ESE 5.8 mph - N/A   Partly Cloudy
7:52 AM 57.0 °F 43.0 °F 59% 29.95 in - East 8.1 mph - N/A   Clear
8:52 AM 64.0 °F 42.1 °F 45% 29.96 in - East 13.8 mph 21.9 mph N/A   Clear
9:52 AM 66.9 °F 41.0 °F 39% 29.94 in - East 18.4 mph - N/A   Clear
10:52 AM 68.0 °F 39.0 °F 35% 29.95 in - East 15.0 mph 25.3 mph N/A   Clear
11:52 AM 73.0 °F 37.0 °F 27% 29.95 in - ESE 15.0 mph - N/A   Clear
12:52 PM 75.0 °F 39.0 °F 27% 29.94 in - East 11.5 mph - N/A   Clear
1:52 PM 75.9 °F 39.0 °F 26% 29.92 in - ESE 10.4 mph 18.4 mph N/A   Clear
2:52 PM 75.0 °F 39.9 °F 28% 29.91 in - SE 6.9 mph 18.4 mph N/A   Clear
3:52 PM 78.1 °F 39.0 °F 25% 29.89 in - East 8.1 mph 17.3 mph N/A   Clear
4:52 PM 79.0 °F 39.9 °F 25% 29.87 in - ESE 13.8 mph 19.6 mph N/A   Clear
5:52 PM 78.1 °F 39.0 °F 25% 29.85 in - ESE 16.1 mph - N/A   Clear
6:52 PM 79.0 °F 39.9 °F 25% 29.84 in - ESE 12.7 mph - N/A   Clear
7:52 PM 75.9 °F 39.9 °F 27% 29.83 in - ESE 11.5 mph - N/A   Clear
8:52 PM 71.1 °F 42.1 °F 35% 29.84 in - ESE 8.1 mph - N/A   Clear
9:52 PM 64.9 °F 42.1 °F 43% 29.87 in - ENE 5.8 mph - N/A   Clear
10:52 PM 63.0 °F 44.1 °F 50% 29.88 in - East 5.8 mph - N/A   Clear
11:52 PM 61.0 °F 44.1 °F 54% 29.88 in - East 3.5 mph - N/A   Clear